Location: Peterborough
(44.3091°N, 78.3197°W)
Time: 06:12:58
(UTC-04:00)

BlueWalker 3 - Visible Passes

Search period start: 03 October 2024 00:00
Search period end: 13 October 2024 00:00
Orbit: 473 x 486 km, 53.2° (Epoch: 02 October)

Date Brightness Start Highest point End Pass type
(mag) Time Alt. Az. Time Alt. Az. Time Alt. Az.
03 Oct 2.4 06:37:40 10° SW 06:41:18 59° SE 06:44:57 10° ENE visible
04 Oct 2.5 06:09:41 10° SW 06:13:14 52° SE 06:16:51 10° ENE visible
05 Oct 2.6 05:43:15 24° SSW 05:45:08 46° SE 05:48:42 10° ENE visible
06 Oct 2.7 05:16:39 40° SSE 05:16:59 41° SE 05:20:29 10° ENE visible
07 Oct 3.7 04:49:55 29° E 04:49:55 29° E 04:52:14 10° ENE visible
07 Oct 2.5 06:24:07 16° W 06:26:46 40° NNW 06:30:18 10° NE visible
08 Oct 4.8 04:23:03 16° E 04:23:03 16° E 04:23:56 10° ENE visible
08 Oct 2.4 05:57:15 31° WNW 05:58:30 44° NNW 06:02:04 10° NE visible
09 Oct 2.3 05:30:16 48° NNW 05:30:16 48° NNW 05:33:48 10° NE visible
10 Oct 3.3 05:03:12 33° NNE 05:03:12 33° NNE 05:05:29 10° NE visible
10 Oct 3.6 06:37:30 10° WNW 06:40:26 22° N 06:43:22 10° NE visible
11 Oct 4.5 04:36:03 18° NE 04:36:03 18° NE 04:37:08 10° NE visible
11 Oct 3.5 06:10:14 16° NW 06:12:00 22° N 06:14:58 10° NE visible
12 Oct 3.4 05:43:00 22° NNW 05:43:32 23° NNW 05:46:34 10° NE visible
